Weather History for Ostrava, Czech Republic

Change the Weather History Date:

Wednesday, May 8, 2013

  Actual Average (EPKT) Record (EPKT)
Temperature  
Mean Temperature 62 °F -  
Max Temperature 75 °F 67 °F 80 °F (2013)
Min Temperature 49 °F 47 °F 32 °F (2012)
Degree Days  
Heating Degree Days 3    
Growing Degree Days 12 (Base 50)    
Moisture  
Dew Point 57 °F    
Average Humidity 85    
Maximum Humidity 100    
Minimum Humidity 52    
Precipitation  
Precipitation 0.94 in 0.12 in - ()
Sea Level Pressure  
Sea Level Pressure 30.03 in    
Wind  
Wind Speed 5 mph ()    
Max Wind Speed 13 mph    
Max Gust Speed -    
Visibility 5.2 miles    
Events Fog , Rain , Thunderstorm    
Averages and records for this station are not official NWS values.
T = Trace of Precipitation, MM = Missing Value Source: Averaged Metar Reports

Daily Weather History Graph

Daily Weather History Graph

Search for Another Location

Airport:

Trip Planner

Search our weather history database for the weather conditions in past years. The results will help you decide how hot, cold, wet, or windy it might be!

Date:

Astronomy

May. 08, 2013 Rise Set
Actual Time 5:13 AM CEST 8:15 PM CEST
Civil Twilight 4:35 AM CEST 8:53 PM CEST
Nautical Twilight 3:46 AM CEST 9:42 PM CEST
Astronomical Twilight 2:45 AM CEST 10:44 PM CEST
Moon 4:20 AM CEST (5/8) 6:50 PM CEST (5/8)
Length of Visible Light 16h 18m
Length of Day
15h 02m
Waning Crescent, 2% of the Moon is Illuminated
May 8
Waning Crescent
May 10
New
May 18
First Quarter
May 25
Full
May 31
Last Quarter

Hourly Weather History & Observations

Time (CEST) Temp. Dew Point Humidity Pressure Visibility Wind Dir Wind Speed Gust Speed Precip Events Conditions
12:00 AM 57.2 °F 55.4 °F 94% 30.01 in - SSW 4.6 mph - N/A   Clear
12:30 AM 59.0 °F 57.2 °F 94% 30.04 in - Variable 2.3 mph - N/A   Clear
1:00 AM 55.4 °F 53.6 °F 94% 30.04 in - SW 6.9 mph - N/A   Clear
1:30 AM 55.4 °F 53.6 °F 94% 30.04 in - SW 6.9 mph - N/A   Clear
2:00 AM 55 °F 54 °F 93% 30.03 in 12 mi 4.5 mph - -   Partly Cloudy
2:00 AM 55.4 °F 55.4 °F 100% 30.04 in - Variable 2.3 mph - N/A   Clear
2:30 AM 55.4 °F 53.6 °F 94% 30.01 in - SW 3.5 mph - N/A   Clear
3:00 AM 55.4 °F 53.6 °F 94% 30.01 in - SW 2.3 mph - N/A   Clear
3:30 AM 55.4 °F 53.6 °F 94% 30.01 in - Variable 2.3 mph - N/A   Clear
4:00 AM 53.6 °F 53.6 °F 100% 30.01 in - Variable 2.3 mph - N/A   Clear
4:30 AM 51.8 °F 51.8 °F 100% 30.01 in 6.2 mi Variable 2.3 mph - N/A Fog Shallow Fog
5:00 AM 50.0 °F 50.0 °F 100% 30.04 in 0.2 mi West 4.6 mph - N/A Fog Fog
5:10 AM 51.8 °F 50.0 °F 94% 30.04 in 6.2 mi SW 4.6 mph - N/A Fog Shallow Fog
5:30 AM 53.6 °F 51.8 °F 94% 30.04 in 6.2 mi South 3.5 mph - N/A Fog Shallow Fog
6:00 AM 51.8 °F 51.8 °F 100% 30.04 in 3.7 mi Variable 2.3 mph - N/A Fog Shallow Fog
6:30 AM 53.6 °F 51.8 °F 94% 30.04 in 3.7 mi Variable 2.3 mph - N/A   Unknown
7:00 AM 53.6 °F 53.6 °F 100% 30.04 in 3.7 mi SW 5.8 mph - N/A   Unknown
7:30 AM 57.2 °F 55.4 °F 94% 30.04 in 5.0 mi West 3.5 mph - N/A   Unknown
8:00 AM 60 °F 57 °F 88% 30.04 in 6 mi 2.2 mph - -   Scattered Clouds
8:00 AM 60.8 °F 57.2 °F 88% 30.04 in - Variable 2.3 mph - N/A   Clear
8:30 AM 62.6 °F 57.2 °F 82% 30.04 in - West 3.5 mph - N/A   Clear
9:00 AM 64.4 °F 59.0 °F 83% 30.04 in - SW 3.5 mph - N/A   Clear
9:30 AM 68.0 °F 59.0 °F 73% 30.04 in - Variable 2.3 mph - N/A   Clear
10:00 AM 69.8 °F 59.0 °F 68% 30.04 in 6.2 mi West 5.8 mph - N/A   Partly Cloudy
10:30 AM 69.8 °F 59.0 °F 68% 30.04 in 6.2 mi WSW 5.8 mph - N/A   Partly Cloudy
11:00 AM 73.4 °F 59.0 °F 61% 30.04 in 6.2 mi WSW 5.8 mph - N/A   Partly Cloudy
11:30 AM 73.4 °F 59.0 °F 61% 30.04 in 6.2 mi WSW 10.4 mph - N/A   Partly Cloudy
12:00 PM 73.4 °F 60.8 °F 65% 30.04 in 6.2 mi WSW 11.5 mph - N/A   Partly Cloudy
12:30 PM 71.6 °F 59.0 °F 64% 30.04 in 6.2 mi WSW 11.5 mph - N/A   Partly Cloudy
12:39 PM 69.8 °F 57.2 °F 64% 30.04 in 5.0 mi SW 11.5 mph - N/A Rain Rain Showers
12:41 PM 69.8 °F 59.0 °F 68% 30.04 in 5.0 mi SW 11.5 mph - N/A Rain , Thunderstorm Thunderstorms and Rain
12:54 PM 66.2 °F 59.0 °F 78% 30.04 in 3.1 mi SSW 12.7 mph - N/A Rain Heavy Rain Showers
1:00 PM 66.2 °F 59.0 °F 78% 30.04 in 2.5 mi SSW 12.7 mph - N/A Rain , Thunderstorm Thunderstorms and Rain
1:06 PM 66.2 °F 62.6 °F 88% 30.04 in 3.7 mi SSW 5.8 mph - N/A   Mostly Cloudy
1:30 PM 71.6 °F 62.6 °F 73% 30.04 in 6.2 mi WSW 4.6 mph - N/A   Partly Cloudy
1:38 PM 71.6 °F 62.6 °F 73% 30.01 in 6.2 mi WSW 4.6 mph - N/A Thunderstorm Scattered Clouds
2:00 PM 74 °F 60 °F 52% 30.00 in 9 mi SW 6.7 mph - - Thunderstorm Thunderstorm
2:00 PM 73.4 °F 59.0 °F 61% 30.01 in 6.2 mi SW 5.8 mph - N/A Thunderstorm Partly Cloudy
2:30 PM 73.4 °F 59.0 °F 61% 30.01 in 6.2 mi Variable 4.6 mph - N/A   Scattered Clouds
2:46 PM 73.4 °F 59.0 °F 61% 30.01 in 6.2 mi West 4.6 mph - N/A Thunderstorm Mostly Cloudy
3:00 PM 71.6 °F 60.8 °F 69% 30.01 in 5.0 mi NNE 8.1 mph - N/A Rain Rain Showers
3:13 PM 66.2 °F 60.8 °F 83% 30.01 in 3.1 mi ENE 8.1 mph - N/A Rain , Thunderstorm Heavy Thunderstorms and Rain
3:30 PM 64.4 °F 60.8 °F 88% 30.04 in 1.9 mi SSE 11.5 mph - N/A Rain , Thunderstorm Heavy Thunderstorms and Rain
4:00 PM 62.6 °F 57.2 °F 82% 30.01 in 3.1 mi West 6.9 mph - N/A Thunderstorm Thunderstorm
4:30 PM 62.6 °F 55.4 °F 77% 30.04 in 5.0 mi West 12.7 mph - N/A Thunderstorm Thunderstorm
5:00 PM 60.8 °F 57.2 °F 88% 30.04 in 6.2 mi South 3.5 mph - N/A   Mostly Cloudy
5:30 PM 62.6 °F 59.0 °F 88% 30.01 in 6.2 mi SSE 5.8 mph - N/A Rain Light Rain
6:00 PM 62.6 °F 59.0 °F 88% 30.01 in - Variable 3.5 mph - N/A   Clear
6:30 PM 64.4 °F 60.8 °F 88% 30.01 in - SE 3.5 mph - N/A   Clear
7:00 PM 64.4 °F 60.8 °F 88% 30.01 in - WSW 3.5 mph - N/A   Clear
7:30 PM 64.4 °F 60.8 °F 88% 30.01 in - Variable 2.3 mph - N/A   Clear
8:00 PM 62 °F 60 °F 92% 30.00 in 25 mi NE 2.2 mph - -   Partly Cloudy
8:00 PM 62.6 °F 60.8 °F 94% 30.01 in - NNE 2.3 mph - N/A   Clear
8:30 PM 60.8 °F 60.8 °F 100% 30.01 in - Variable 1.2 mph - N/A   Clear
9:00 PM 60.8 °F 59.0 °F 94% 30.01 in - Variable 2.3 mph - N/A   Clear
9:30 PM 57.2 °F 57.2 °F 100% 30.01 in - WSW 5.8 mph - N/A   Clear
10:00 PM 59.0 °F 57.2 °F 94% 30.01 in 5.0 mi Variable 2.3 mph - N/A   Unknown
10:30 PM 57.2 °F 57.2 °F 100% 30.04 in 5.0 mi SW 3.5 mph - N/A   Unknown
11:00 PM 57.2 °F 55.4 °F 94% 30.04 in 3.7 mi SSW 3.5 mph - N/A   Unknown
11:30 PM 57.2 °F 55.4 °F 94% 30.01 in 4.3 mi Variable 1.2 mph - N/A   Unknown